Voltar ao catálogo

STARLINK-5934

AtivoComunicaçõesVLEO
NORAD 56017·PAYLOAD·🇺🇸 United States

Lançado Mar 24, 2023 de Cape Canaveral Space Force Station

Loading…

Próximas Passagens (próximas 24 horas)

TLE

AtualizadoSource: CelesTrak SupGP

Época: Sep 14, 2026, 20:45 UTC

1 56017C 23042AH  26257.86506944  .00055200  00000+0  19994-2 0  2576
2 56017  43.0028  56.9780 0002026 271.6726 176.9215 15.27548645    13

Acompanhe STARLINK-5934 em tempo real com AllMySat

Download on the App Store